Terug naar catalogus

EUTE KA SAT 9A

KA SAT

ActiefCommunicatieGEO
NORAD 37258·PAYLOAD·🇪🇺 EU

Gelanceerd Dec 26, 2010 vanaf Baikonur Cosmodrome

Loading…

TLE

VersSource: Space-Track

Epoch: Sep 14, 2026, 07:00 UTC

1 37258U 10069A   26257.29180439  .00000053  00000-0  00000-0 0  9997
2 37258   0.0739 352.4829 0005406 178.1302 296.7216  1.00271766 44906

Volg EUTE KA SAT 9A in realtime met AllMySat

Download on the App Store